Location: Carrigahorig
(53.0625°N, 8.1439°W)
Time: 02:20:13
(UTC+00:00)

ARIANE 5 R/B - Pass Details

Date: 15 May 2026
Orbit: 614 x 648 km, 98.0° (Epoch: 14 September)

Event Time Altitude Azimuth Distance (km) Brightness Sun altitude
Exits shadow 22:52:41 19° 121° (ESE) 1,521 4.1 -14.9°
Maximum altitude 22:55:18 37° 65° (ENE) 1,008 3.6 -15.1°
Drops below altitude 10° 22:59:25 10° 359° (N) 2,056 6.4 -15.3°
Sets 23:01:45 0° 351° (N) 2,973 7.7 -15.5°
